This is the latest recevied weather packets stored in our database for station/object 4S6DRJ-13. If no packets are shown the sender has not sent any weather packets the latest 10 day(s).
| Time | Temp. | Humidity | Pressure | Rain* | Wind** | Luminosity | Snow |
|---|---|---|---|---|---|---|---|
| 1787832913 | 28.89° C | 80% | 1008.7 hPa | 0 mm | 0.89 m/s, 59° | 43 W/m² | - |
| 1787832852 | 28.89° C | 80% | 1008.9 hPa | 0 mm | 0.45 m/s, 292° | 41 W/m² | - |
| 1787832791 | 28.89° C | 80% | 1009 hPa | 0 mm | 1.79 m/s, 298° | 43 W/m² | - |
| 1787832730 | 28.89° C | 80% | 1008.8 hPa | 0 mm | 1.34 m/s, 340° | 46 W/m² | - |
| 1787832669 | 28.89° C | 80% | 1008.8 hPa | 0 mm | 2.68 m/s, 266° | 50 W/m² | - |
| 1787832608 | 28.89° C | 79% | 1008.8 hPa | 0 mm | 0.89 m/s, 279° | 56 W/m² | - |
| 1787832547 | 28.89° C | 79% | 1008.6 hPa | 0 mm | 1.79 m/s, 205° | 64 W/m² | - |
| 1787832486 | 28.89° C | 79% | 1008.7 hPa | 0 mm | 1.34 m/s, 202° | 71 W/m² | - |
| 1787832426 | 28.89° C | 79% | 1008.7 hPa | 0 mm | 1.34 m/s, 195° | 74 W/m² | - |
| 1787832364 | 28.89° C | 79% | 1008.7 hPa | 0 mm | 0.89 m/s, 266° | 72 W/m² | - |
| 1787832303 | 28.89° C | 79% | 1008.7 hPa | 0 mm | 0.89 m/s, 254° | 69 W/m² | - |
| 1787832242 | 28.89° C | 79% | 1008.7 hPa | 0 mm | 0.45 m/s, 243° | 66 W/m² | - |
| 1787832181 | 28.89° C | 79% | 1008.5 hPa | 0 mm | 1.79 m/s, 178° | 66 W/m² | - |
| 1787832120 | 28.89° C | 79% | 1008.6 hPa | 0 mm | 0.89 m/s, 207° | 67 W/m² | - |
| 1787832064 | 28.89° C | 79% | 1008.7 hPa | 0 mm | 0.89 m/s, 0° | 69 W/m² | - |
| 1787831998 | 28.89° C | 79% | 1008.7 hPa | 0 mm | 1.34 m/s, 201° | 75 W/m² | - |
| 1787831937 | 29.44° C | 79% | 1008.7 hPa | 0 mm | 0.89 m/s, 225° | 82 W/m² | - |
| 1787831876 | 29.44° C | 78% | 1008.6 hPa | 0 mm | 1.79 m/s, 235° | 90 W/m² | - |
| 1787831815 | 29.44° C | 79% | 1008.3 hPa | 0 mm | 1.34 m/s, 159° | 92 W/m² | - |
| 1787831754 | 29.44° C | 78% | 1008.5 hPa | 0 mm | 1.34 m/s, 319° | 94 W/m² | - |
| 1787831693 | 29.44° C | 79% | 1008.5 hPa | 0 mm | 0.89 m/s, 193° | 105 W/m² | - |
| 1787831632 | 29.44° C | 78% | 1008.4 hPa | 0 mm | 0.89 m/s, 254° | 107 W/m² | - |
| 1787831571 | 29.44° C | 78% | 1008.5 hPa | 0 mm | 2.68 m/s, 243° | 109 W/m² | - |
| 1787831510 | 29.44° C | 78% | 1008.6 hPa | 0 mm | 1.79 m/s, 172° | 115 W/m² | - |
| 1787831451 | 29.44° C | 78% | 1008.5 hPa | 0 mm | 1.34 m/s, 181° | 117 W/m² | - |
* Rain latest hour (hover to see other rain measurements)
** Current wind speed in m/s (hover to see current wind gust speed)